Time,TemperatureF,DewpointF,PressureIn,WindDirection,WindDirectionDegrees,WindSpeedMPH,WindSpeedGustMPH,Humidity,HourlyPrecipIn,Conditions,Clouds,dailyrainin,SoftwareType,DateUTC
2013-01-01 00:00:00,47.3,33.3,30.12,North,0,2.0,3.0,58,0.00,,,0.00,meteohub,2013-01-01 05:00:00,
2013-01-01 00:02:00,47.5,33.4,30.12,West,270,2.0,3.0,58,0.00,,,0.00,meteohub,2013-01-01 05:02:00,
2013-01-01 00:07:00,47.5,33.4,30.12,NW,315,2.0,3.0,58,0.00,,,0.00,meteohub,2013-01-01 05:07:00,
2013-01-01 00:12:00,47.5,33.4,30.12,South,180,2.0,3.0,58,0.00,,,0.00,meteohub,2013-01-01 05:12:00,
2013-01-01 00:17:00,47.5,33.4,30.12,North,0,2.0,3.0,58,0.00,,,0.00,meteohub,2013-01-01 05:17:00,
2013-01-01 00:23:00,47.5,33.4,30.12,West,270,2.0,2.0,58,0.00,,,0.00,meteohub,2013-01-01 05:23:00,
2013-01-01 00:28:00,47.7,33.6,30.12,NW,315,1.0,2.0,58,0.00,,,0.00,meteohub,2013-01-01 05:28:00,
2013-01-01 00:33:00,47.7,34.0,30.12,North,0,2.0,2.0,59,0.00,,,0.00,meteohub,2013-01-01 05:33:00,
2013-01-01 00:38:00,47.8,34.2,30.12,NE,45,1.0,2.0,59,0.00,,,0.00,meteohub,2013-01-01 05:38:00,
2013-01-01 00:43:00,47.8,33.8,30.12,NE,45,2.0,2.0,58,0.00,,,0.00,meteohub,2013-01-01 05:43:00,
2013-01-01 00:48:00,47.8,33.8,30.12,SW,225,2.0,2.0,58,0.00,,,0.00,meteohub,2013-01-01 05:48:00,
2013-01-01 00:53:00,48.0,34.3,30.12,SW,225,3.0,3.0,59,0.00,,,0.00,meteohub,2013-01-01 05:53:00,
2013-01-01 00:58:00,48.0,34.3,30.11,North,0,1.0,3.0,59,0.00,,,0.00,meteohub,2013-01-01 05:58:00,
2013-01-01 01:04:00,48.0,34.3,30.12,East,90,2.0,3.0,59,0.00,,,0.00,meteohub,2013-01-01 06:04:00,
2013-01-01 01:09:00,48.0,34.3,30.12,SE,135,3.0,3.0,59,0.00,,,0.00,meteohub,2013-01-01 06:09:00,
2013-01-01 01:14:00,48.0,34.3,30.11,East,90,1.0,3.0,59,0.00,,,0.00,meteohub,2013-01-01 06:14:00,
2013-01-01 01:19:00,48.0,34.3,30.12,SW,225,2.0,3.0,59,0.00,,,0.00,meteohub,2013-01-01 06:19:00,
2013-01-01 01:24:00,48.2,34.2,30.11,SW,225,2.0,3.0,58,0.00,,,0.00,meteohub,2013-01-01 06:24:00,
2013-01-01 01:29:00,48.0,34.3,30.11,SW,225,2.0,2.0,59,0.00,,,0.00,meteohub,2013-01-01 06:29:00,
2013-01-01 01:34:00,48.0,34.3,30.10,SW,225,1.0,2.0,59,0.00,,,0.00,meteohub,2013-01-01 06:34:00,
2013-01-01 01:40:00,47.8,34.7,30.10,North,0,2.0,2.0,60,0.00,,,0.00,meteohub,2013-01-01 06:40:00,
2013-01-01 01:45:00,48.0,34.9,30.11,West,270,2.0,2.0,60,0.00,,,0.00,meteohub,2013-01-01 06:45:00,
2013-01-01 01:50:00,48.0,34.9,30.10,SW,225,2.0,2.0,60,0.00,,,0.00,meteohub,2013-01-01 06:50:00,
2013-01-01 01:55:00,48.0,34.9,30.10,East,90,1.0,2.0,60,0.00,,,0.00,meteohub,2013-01-01 06:55:00,
2013-01-01 02:00:00,48.0,34.9,30.09,SE,135,1.0,2.0,60,0.00,,,0.00,meteohub,2013-01-01 07:00:00,
2013-01-01 02:05:00,48.0,34.9,30.10,NE,45,1.0,2.0,60,0.00,,,0.00,meteohub,2013-01-01 07:05:00,
2013-01-01 02:10:00,48.0,34.9,30.09,North,0,0.0,2.0,60,0.00,,,0.00,meteohub,2013-01-01 07:10:00,
2013-01-01 02:15:00,48.0,34.9,30.09,SW,225,2.0,2.0,60,0.00,,,0.00,meteohub,2013-01-01 07:15:00,
2013-01-01 02:20:00,48.0,34.9,30.09,SW,225,0.0,2.0,60,0.00,,,0.00,meteohub,2013-01-01 07:20:00,
2013-01-01 02:25:00,48.0,34.9,30.09,West,270,1.0,2.0,60,0.00,,,0.00,meteohub,2013-01-01 07:25:00,
2013-01-01 02:30:00,48.2,34.5,30.09,NE,45,2.0,2.0,59,0.00,,,0.00,meteohub,2013-01-01 07:30:00,
2013-01-01 02:35:00,48.2,34.5,30.09,North,0,1.0,2.0,59,0.00,,,0.00,meteohub,2013-01-01 07:35:00,
2013-01-01 02:40:00,48.2,34.9,30.09,SW,225,2.0,2.0,60,0.00,,,0.00,meteohub,2013-01-01 07:40:00,
2013-01-01 02:45:00,48.4,34.7,30.08,South,180,2.0,2.0,59,0.00,,,0.00,meteohub,2013-01-01 07:45:00,
2013-01-01 02:50:00,48.4,35.1,30.08,NE,45,1.0,2.0,60,0.00,,,0.00,meteohub,2013-01-01 07:50:00,
2013-01-01 02:55:00,48.4,35.1,30.08,North,0,1.0,2.0,60,0.00,,,0.00,meteohub,2013-01-01 07:55:00,
2013-01-01 03:00:00,48.4,35.1,30.08,NE,45,1.0,2.0,60,0.00,,,0.00,meteohub,2013-01-01 08:00:00,
2013-01-01 03:05:00,48.4,35.1,30.08,NE,45,1.0,2.0,60,0.00,,,0.00,meteohub,2013-01-01 08:05:00,
2013-01-01 03:10:00,48.4,35.1,30.09,South,180,2.0,2.0,60,0.00,,,0.00,meteohub,2013-01-01 08:10:00,
2013-01-01 03:15:00,48.4,35.1,30.08,NW,315,1.0,3.0,60,0.00,,,0.00,meteohub,2013-01-01 08:15:00,
2013-01-01 03:21:00,48.4,35.1,30.08,NW,315,1.0,3.0,60,0.00,,,0.00,meteohub,2013-01-01 08:21:00,
2013-01-01 03:26:00,48.4,35.1,30.07,NW,315,0.0,3.0,60,0.00,,,0.00,meteohub,2013-01-01 08:26:00,
2013-01-01 03:31:00,48.4,35.1,30.08,West,270,1.0,2.0,60,0.00,,,0.00,meteohub,2013-01-01 08:31:00,
2013-01-01 03:36:00,48.4,35.1,30.08,SW,225,1.0,2.0,60,0.00,,,0.00,meteohub,2013-01-01 08:36:00,
2013-01-01 03:41:00,48.4,35.6,30.08,East,90,2.0,2.0,61,0.00,,,0.00,meteohub,2013-01-01 08:41:00,
2013-01-01 03:46:00,48.4,35.6,30.08,SW,225,2.0,2.0,61,0.00,,,0.00,meteohub,2013-01-01 08:46:00,
2013-01-01 03:51:00,48.2,36.1,30.09,SW,225,1.0,2.0,63,0.00,,,0.00,meteohub,2013-01-01 08:51:00,
2013-01-01 03:56:00,48.0,36.0,30.08,SW,225,1.0,2.0,63,0.00,,,0.00,meteohub,2013-01-01 08:56:00,
2013-01-01 04:01:00,48.0,36.0,30.08,SW,225,1.0,2.0,63,0.00,,,0.00,meteohub,2013-01-01 09:01:00,
2013-01-01 04:06:00,47.8,36.7,30.08,West,270,2.0,2.0,65,0.00,,,0.00,meteohub,2013-01-01 09:06:00,
2013-01-01 04:11:00,47.7,36.5,30.07,South,180,0.0,2.0,65,0.00,,,0.00,meteohub,2013-01-01 09:11:00,
2013-01-01 04:16:00,47.7,36.5,30.06,NE,45,0.0,2.0,65,0.00,,,0.00,meteohub,2013-01-01 09:16:00,
2013-01-01 04:21:00,47.5,36.3,30.07,SW,225,2.0,2.0,65,0.00,,,0.00,meteohub,2013-01-01 09:21:00,
2013-01-01 04:26:00,47.3,36.5,30.08,NE,45,1.0,2.0,66,0.00,,,0.00,meteohub,2013-01-01 09:26:00,
2013-01-01 04:31:00,47.3,36.5,30.08,SW,225,2.0,2.0,66,0.00,,,0.00,meteohub,2013-01-01 09:31:00,
2013-01-01 04:37:00,47.3,36.5,30.08,SW,225,1.0,2.0,66,0.00,,,0.00,meteohub,2013-01-01 09:37:00,
2013-01-01 04:42:00,47.3,36.5,30.08,South,180,1.0,2.0,66,0.00,,,0.00,meteohub,2013-01-01 09:42:00,
2013-01-01 04:47:00,47.1,36.3,30.07,SE,135,1.0,2.0,66,0.00,,,0.00,meteohub,2013-01-01 09:47:00,
2013-01-01 04:52:00,47.1,36.3,30.07,West,270,0.0,2.0,66,0.00,,,0.00,meteohub,2013-01-01 09:52:00,
2013-01-01 04:57:00,47.1,36.3,30.07,West,270,0.0,2.0,66,0.00,,,0.00,meteohub,2013-01-01 09:57:00,
2013-01-01 05:02:00,47.1,36.3,30.08,West,270,1.0,2.0,66,0.00,,,0.00,meteohub,2013-01-01 10:02:00,
2013-01-01 05:07:00,47.1,36.3,30.07,West,270,1.0,2.0,66,0.00,,,0.00,meteohub,2013-01-01 10:07:00,
2013-01-01 05:12:00,47.3,36.5,30.07,SW,225,0.0,1.0,66,0.00,,,0.00,meteohub,2013-01-01 10:12:00,
2013-01-01 05:17:00,47.1,36.3,30.06,East,90,0.0,2.0,66,0.00,,,0.00,meteohub,2013-01-01 10:17:00,
2013-01-01 05:22:00,47.1,36.0,30.06,North,0,0.0,2.0,65,0.00,,,0.00,meteohub,2013-01-01 10:22:00,
2013-01-01 05:27:00,47.1,36.3,30.06,East,90,0.0,1.0,66,0.00,,,0.00,meteohub,2013-01-01 10:27:00,
2013-01-01 05:32:00,47.1,36.0,30.06,SW,225,2.0,2.0,65,0.00,,,0.00,meteohub,2013-01-01 10:32:00,
2013-01-01 05:37:00,47.1,36.0,30.07,SW,225,0.0,2.0,65,0.00,,,0.00,meteohub,2013-01-01 10:37:00,
2013-01-01 05:42:00,47.1,36.3,30.08,SW,225,0.0,2.0,66,0.00,,,0.00,meteohub,2013-01-01 10:42:00,
2013-01-01 05:47:00,46.9,36.1,30.08,NE,45,0.0,2.0,66,0.00,,,0.00,meteohub,2013-01-01 10:47:00,
2013-01-01 05:52:00,46.8,36.0,30.08,NE,45,0.0,1.0,66,0.00,,,0.00,meteohub,2013-01-01 10:52:00,
2013-01-01 05:57:00,46.8,36.3,30.09,NE,45,0.0,1.0,67,0.00,,,0.00,meteohub,2013-01-01 10:57:00,
2013-01-01 06:02:00,46.8,36.3,30.08,NE,45,0.0,0.0,67,0.00,,,0.00,meteohub,2013-01-01 11:02:00,
2013-01-01 06:07:00,46.6,36.5,30.09,NE,45,0.0,0.0,68,0.00,,,0.00,meteohub,2013-01-01 11:07:00,
2013-01-01 06:13:00,46.4,36.5,30.09,NE,45,0.0,0.0,68,0.00,,,0.00,meteohub,2013-01-01 11:13:00,
2013-01-01 06:18:00,46.2,36.7,30.09,NE,45,0.0,0.0,69,0.00,,,0.00,meteohub,2013-01-01 11:18:00,
2013-01-01 06:23:00,46.2,37.4,30.09,NE,45,0.0,0.0,71,0.00,,,0.00,meteohub,2013-01-01 11:23:00,
2013-01-01 06:28:00,46.0,37.2,30.09,NE,45,0.0,0.0,71,0.00,,,0.00,meteohub,2013-01-01 11:28:00,
2013-01-01 06:33:00,45.9,37.4,30.09,NE,45,0.0,0.0,72,0.00,,,0.00,meteohub,2013-01-01 11:33:00,
2013-01-01 06:38:00,45.9,37.8,30.09,NE,45,0.0,0.0,73,0.00,,,0.00,meteohub,2013-01-01 11:38:00,
2013-01-01 06:43:00,45.7,37.9,30.09,NE,45,0.0,0.0,74,0.00,,,0.00,meteohub,2013-01-01 11:43:00,
2013-01-01 06:48:00,45.7,37.9,30.09,West,270,1.0,0.0,74,0.00,,,0.00,meteohub,2013-01-01 11:48:00,
2013-01-01 06:53:00,45.7,38.3,30.09,North,-999,-999.0,2.0,75,0.00,,,0.00,meteohub,2013-01-01 11:53:00,
2013-01-01 06:59:00,45.5,38.3,30.09,East,90,0.0,2.0,76,0.00,,,0.00,meteohub,2013-01-01 11:59:00,
2013-01-01 07:04:00,45.5,38.3,30.09,East,90,0.0,2.0,76,0.00,,,0.00,meteohub,2013-01-01 12:04:00,
2013-01-01 07:09:00,45.3,38.5,30.09,West,270,1.0,1.0,77,0.00,,,0.00,meteohub,2013-01-01 12:09:00,
2013-01-01 07:14:00,45.3,38.8,30.10,NW,315,0.0,2.0,78,0.00,,,0.00,meteohub,2013-01-01 12:14:00,
2013-01-01 07:19:00,45.1,39.7,30.10,East,90,0.0,2.0,81,0.00,,,0.00,meteohub,2013-01-01 12:19:00,
2013-01-01 07:24:00,44.8,39.6,30.10,East,90,0.0,2.0,82,0.00,,,0.00,meteohub,2013-01-01 12:24:00,
2013-01-01 07:29:00,44.6,39.7,30.10,East,90,0.0,2.0,83,0.00,,,0.00,meteohub,2013-01-01 12:29:00,
2013-01-01 07:34:00,44.2,40.1,30.10,East,90,0.0,0.0,85,0.00,,,0.00,meteohub,2013-01-01 12:34:00,
2013-01-01 07:39:00,44.1,40.1,30.10,East,90,0.0,0.0,86,0.00,,,0.00,meteohub,2013-01-01 12:39:00,
2013-01-01 07:44:00,43.9,40.8,30.11,SW,225,0.0,0.0,89,0.00,,,0.00,meteohub,2013-01-01 12:44:00,
2013-01-01 07:49:00,43.7,41.0,30.11,SW,225,0.0,0.0,90,0.00,,,0.00,meteohub,2013-01-01 12:49:00,
2013-01-01 07:54:00,43.7,41.2,30.12,West,270,1.0,0.0,91,0.00,,,0.00,meteohub,2013-01-01 12:54:00,
2013-01-01 07:59:00,43.7,41.5,30.10,NE,45,0.0,0.0,92,0.00,,,0.00,meteohub,2013-01-01 12:59:00,
2013-01-01 08:04:00,43.9,41.7,30.10,SW,225,0.0,2.0,92,0.00,,,0.00,meteohub,2013-01-01 13:04:00,
2013-01-01 08:10:00,43.9,41.7,30.10,SW,225,0.0,2.0,92,0.01,,,0.01,meteohub,2013-01-01 13:10:00,
2013-01-01 08:15:00,43.7,41.5,30.10,SW,225,0.0,1.0,92,0.01,,,0.01,meteohub,2013-01-01 13:15:00,
2013-01-01 08:20:00,43.7,41.5,30.10,SW,225,2.0,2.0,92,0.01,,,0.01,meteohub,2013-01-01 13:20:00,
2013-01-01 08:25:00,43.7,41.7,30.11,SW,225,0.0,2.0,93,0.01,,,0.01,meteohub,2013-01-01 13:25:00,
2013-01-01 08:30:00,43.9,41.7,30.11,South,180,2.0,2.0,92,0.01,,,0.01,meteohub,2013-01-01 13:30:00,
2013-01-01 08:35:00,44.1,41.5,30.11,NE,45,0.0,2.0,91,0.01,,,0.01,meteohub,2013-01-01 13:35:00,
2013-01-01 08:40:00,44.2,41.5,30.11,SW,225,1.0,2.0,90,0.01,,,0.01,meteohub,2013-01-01 13:40:00,
2013-01-01 08:45:00,44.2,41.2,30.11,SE,135,0.0,2.0,89,0.01,,,0.01,meteohub,2013-01-01 13:45:00,
2013-01-01 08:50:00,44.4,41.4,30.11,NE,45,0.0,2.0,89,0.01,,,0.01,meteohub,2013-01-01 13:50:00,
2013-01-01 08:55:00,44.6,41.2,30.10,South,180,1.0,2.0,88,0.01,,,0.01,meteohub,2013-01-01 13:55:00,
2013-01-01 09:00:00,44.6,41.2,30.10,NE,45,1.0,2.0,88,0.01,,,0.01,meteohub,2013-01-01 14:00:00,
2013-01-01 09:05:00,44.8,41.4,30.10,East,90,1.0,2.0,88,0.00,,,0.01,meteohub,2013-01-01 14:05:00,
2013-01-01 09:10:00,44.8,41.7,30.11,NE,45,1.0,2.0,89,0.00,,,0.01,meteohub,2013-01-01 14:10:00,
2013-01-01 09:16:00,45.0,41.5,30.11,South,180,2.0,2.0,88,0.00,,,0.01,meteohub,2013-01-01 14:16:00,
2013-01-01 09:21:00,45.0,41.9,30.11,NW,315,2.0,2.0,89,0.00,,,0.01,meteohub,2013-01-01 14:21:00,
2013-01-01 09:26:00,45.0,41.9,30.11,West,270,4.0,4.0,89,0.00,,,0.01,meteohub,2013-01-01 14:26:00,
2013-01-01 09:31:00,44.8,42.3,30.11,SW,225,2.0,4.0,91,0.01,,,0.02,meteohub,2013-01-01 14:31:00,
2013-01-01 09:36:00,44.8,42.3,30.11,NE,45,1.0,4.0,91,0.01,,,0.02,meteohub,2013-01-01 14:36:00,
2013-01-01 09:41:00,44.6,42.4,30.12,SW,225,2.0,4.0,92,0.02,,,0.04,meteohub,2013-01-01 14:41:00,
2013-01-01 09:46:00,44.4,42.8,30.12,East,90,2.0,4.0,94,0.02,,,0.04,meteohub,2013-01-01 14:46:00,
2013-01-01 09:52:00,44.4,43.2,30.12,NE,45,2.0,4.0,95,0.04,,,0.05,meteohub,2013-01-01 14:52:00,
2013-01-01 09:57:00,44.2,43.2,30.12,West,270,2.0,4.0,96,0.04,,,0.05,meteohub,2013-01-01 14:57:00,
2013-01-01 10:02:00,44.2,43.5,30.12,SW,225,2.0,4.0,97,0.05,,,0.06,meteohub,2013-01-01 15:02:00,
2013-01-01 10:07:00,44.2,43.7,30.11,SE,135,2.0,2.0,98,0.05,,,0.06,meteohub,2013-01-01 15:07:00,
2013-01-01 10:12:00,44.2,43.7,30.11,SW,225,2.0,4.0,98,0.06,,,0.07,meteohub,2013-01-01 15:12:00,
2013-01-01 10:17:00,44.2,43.7,30.11,West,270,2.0,4.0,98,0.06,,,0.07,meteohub,2013-01-01 15:17:00,
2013-01-01 10:22:00,44.2,43.7,30.11,North,0,2.0,4.0,98,0.06,,,0.07,meteohub,2013-01-01 15:22:00,
2013-01-01 10:27:00,44.4,43.9,30.10,SW,225,2.0,3.0,98,0.06,,,0.07,meteohub,2013-01-01 15:27:00,
2013-01-01 10:32:00,44.6,43.9,30.10,West,270,2.0,3.0,97,0.05,,,0.07,meteohub,2013-01-01 15:32:00,
2013-01-01 10:37:00,44.6,43.9,30.10,NE,45,2.0,3.0,97,0.05,,,0.07,meteohub,2013-01-01 15:37:00,
2013-01-01 10:42:00,44.6,43.9,30.09,West,270,2.0,3.0,97,0.05,,,0.07,meteohub,2013-01-01 15:42:00,
2013-01-01 10:47:00,44.8,44.1,30.10,North,0,2.0,2.0,97,0.05,,,0.08,meteohub,2013-01-01 15:47:00,
2013-01-01 10:52:00,44.8,44.1,30.09,NE,45,2.0,3.0,97,0.04,,,0.08,meteohub,2013-01-01 15:52:00,
2013-01-01 10:57:00,45.0,44.2,30.09,North,0,3.0,4.0,97,0.04,,,0.08,meteohub,2013-01-01 15:57:00,
2013-01-01 11:02:00,45.1,44.4,30.08,SW,225,4.0,4.0,97,0.02,,,0.08,meteohub,2013-01-01 16:02:00,
2013-01-01 11:07:00,45.1,44.4,30.07,SW,225,2.0,4.0,97,0.01,,,0.08,meteohub,2013-01-01 16:07:00,
2013-01-01 11:12:00,45.1,44.4,30.06,SW,225,6.0,6.0,97,0.02,,,0.09,meteohub,2013-01-01 16:12:00,
2013-01-01 11:17:00,45.1,44.4,30.07,NE,45,3.0,6.0,97,0.02,,,0.09,meteohub,2013-01-01 16:17:00,
2013-01-01 11:22:00,45.1,44.4,30.06,West,270,2.0,6.0,97,0.02,,,0.09,meteohub,2013-01-01 16:22:00,
2013-01-01 11:27:00,45.3,44.6,30.06,SW,225,2.0,6.0,97,0.02,,,0.09,meteohub,2013-01-01 16:27:00,
2013-01-01 11:32:00,45.5,44.8,30.06,SW,225,3.0,4.0,97,0.02,,,0.09,meteohub,2013-01-01 16:32:00,
2013-01-01 11:37:00,45.7,45.0,30.05,South,180,3.0,4.0,97,0.02,,,0.09,meteohub,2013-01-01 16:37:00,
2013-01-01 11:42:00,45.9,45.1,30.04,SW,225,3.0,4.0,97,0.01,,,0.09,meteohub,2013-01-01 16:42:00,
2013-01-01 11:47:00,45.9,45.1,30.04,SW,225,3.0,4.0,97,0.01,,,0.09,meteohub,2013-01-01 16:47:00,
2013-01-01 11:52:00,46.0,45.3,30.04,NE,45,2.0,4.0,97,0.01,,,0.09,meteohub,2013-01-01 16:52:00,
2013-01-01 11:57:00,46.0,45.3,30.04,SW,225,2.0,3.0,97,0.01,,,0.09,meteohub,2013-01-01 16:57:00,
2013-01-01 12:02:00,46.0,45.3,30.04,South,180,2.0,4.0,97,0.01,,,0.09,meteohub,2013-01-01 17:02:00,
2013-01-01 12:08:00,46.0,45.3,30.01,SE,135,2.0,4.0,97,0.01,,,0.09,meteohub,2013-01-01 17:08:00,
2013-01-01 12:13:00,46.2,45.5,30.01,SW,225,4.0,4.0,97,0.00,,,0.09,meteohub,2013-01-01 17:13:00,
2013-01-01 12:18:00,46.2,45.5,30.00,NW,315,3.0,6.0,97,0.00,,,0.09,meteohub,2013-01-01 17:18:00,
2013-01-01 12:23:00,46.4,46.2,30.00,North,0,2.0,6.0,99,0.00,,,0.09,meteohub,2013-01-01 17:23:00,
2013-01-01 12:28:00,46.6,46.4,30.00,East,90,3.0,6.0,99,0.00,,,0.09,meteohub,2013-01-01 17:28:00,
2013-01-01 12:33:00,46.8,46.6,29.99,East,90,2.0,6.0,99,0.00,,,0.09,meteohub,2013-01-01 17:33:00,
2013-01-01 12:38:00,46.8,46.6,29.99,East,90,4.0,6.0,99,0.00,,,0.09,meteohub,2013-01-01 17:38:00,
2013-01-01 12:43:00,46.9,46.8,29.99,NW,315,2.0,6.0,99,0.00,,,0.09,meteohub,2013-01-01 17:43:00,
2013-01-01 12:48:00,47.1,46.9,29.98,South,180,4.0,4.0,99,0.00,,,0.09,meteohub,2013-01-01 17:48:00,
2013-01-01 12:53:00,47.3,47.1,29.98,East,90,2.0,4.0,99,0.00,,,0.09,meteohub,2013-01-01 17:53:00,
2013-01-01 12:58:00,47.5,47.3,29.98,North,0,3.0,4.0,99,0.00,,,0.09,meteohub,2013-01-01 17:58:00,
2013-01-01 13:03:00,47.8,47.7,29.98,SW,225,3.0,5.0,99,0.00,,,0.09,meteohub,2013-01-01 18:03:00,
2013-01-01 13:08:00,48.0,47.8,29.98,NW,315,3.0,5.0,99,0.00,,,0.09,meteohub,2013-01-01 18:08:00,
2013-01-01 13:14:00,48.0,47.8,29.98,West,270,4.0,5.0,99,0.00,,,0.09,meteohub,2013-01-01 18:14:00,
2013-01-01 13:19:00,48.2,48.0,29.98,South,180,4.0,4.0,99,0.00,,,0.09,meteohub,2013-01-01 18:19:00,
2013-01-01 13:24:00,48.4,48.2,29.99,West,270,6.0,6.0,99,0.00,,,0.09,meteohub,2013-01-01 18:24:00,
2013-01-01 13:29:00,48.6,48.4,29.99,East,90,2.0,6.0,99,0.00,,,0.09,meteohub,2013-01-01 18:29:00,
2013-01-01 13:34:00,48.6,48.4,29.99,South,180,3.0,6.0,99,0.00,,,0.09,meteohub,2013-01-01 18:34:00,
2013-01-01 13:39:00,48.6,48.4,29.99,West,270,2.0,6.0,99,0.00,,,0.09,meteohub,2013-01-01 18:39:00,
2013-01-01 13:44:00,48.7,48.6,29.99,East,90,2.0,5.0,99,0.00,,,0.09,meteohub,2013-01-01 18:44:00,
2013-01-01 13:49:00,48.7,48.6,30.00,East,90,4.0,4.0,99,0.00,,,0.09,meteohub,2013-01-01 18:49:00,
2013-01-01 13:54:00,48.7,48.6,30.00,West,270,2.0,4.0,99,0.00,,,0.09,meteohub,2013-01-01 18:54:00,
2013-01-01 13:59:00,48.9,48.7,30.01,North,0,2.0,4.0,99,0.00,,,0.09,meteohub,2013-01-01 18:59:00,
2013-01-01 14:04:00,48.9,48.7,30.00,SW,225,2.0,4.0,99,0.00,,,0.09,meteohub,2013-01-01 19:04:00,
2013-01-01 14:09:00,48.9,48.7,30.00,South,180,2.0,3.0,99,0.00,,,0.09,meteohub,2013-01-01 19:09:00,
2013-01-01 14:14:00,48.7,48.6,30.00,SW,225,2.0,3.0,99,0.00,,,0.09,meteohub,2013-01-01 19:14:00,
2013-01-01 14:20:00,48.7,48.6,30.00,South,180,4.0,4.0,99,0.00,,,0.09,meteohub,2013-01-01 19:20:00,
2013-01-01 14:25:00,48.7,48.6,29.99,West,270,3.0,5.0,99,0.00,,,0.09,meteohub,2013-01-01 19:25:00,
2013-01-01 14:30:00,48.7,48.6,29.98,SE,135,2.0,5.0,99,0.00,,,0.09,meteohub,2013-01-01 19:30:00,
2013-01-01 14:35:00,48.7,48.6,29.98,SW,225,2.0,5.0,99,0.00,,,0.09,meteohub,2013-01-01 19:35:00,
2013-01-01 14:40:00,48.7,48.6,29.98,East,90,2.0,3.0,99,0.00,,,0.09,meteohub,2013-01-01 19:40:00,
2013-01-01 14:45:00,48.7,48.6,29.97,NE,45,2.0,3.0,99,0.00,,,0.09,meteohub,2013-01-01 19:45:00,
2013-01-01 14:50:00,48.9,48.7,29.97,NW,315,2.0,3.0,99,0.00,,,0.11,meteohub,2013-01-01 19:50:00,
2013-01-01 14:55:00,48.9,48.7,29.97,South,180,2.0,2.0,99,0.01,,,0.11,meteohub,2013-01-01 19:55:00,
2013-01-01 15:00:00,48.9,48.7,29.97,South,180,2.0,3.0,99,0.01,,,0.11,meteohub,2013-01-01 20:00:00,
2013-01-01 15:05:00,49.1,48.9,29.98,SW,225,3.0,4.0,99,0.01,,,0.11,meteohub,2013-01-01 20:05:00,
2013-01-01 15:10:00,49.1,48.9,29.97,NW,315,4.0,4.0,99,0.01,,,0.11,meteohub,2013-01-01 20:10:00,
2013-01-01 15:16:00,49.3,49.1,29.98,SW,225,2.0,4.0,99,0.01,,,0.11,meteohub,2013-01-01 20:16:00,
2013-01-01 15:21:00,49.5,49.3,29.99,NW,315,2.0,4.0,99,0.01,,,0.11,meteohub,2013-01-01 20:21:00,
2013-01-01 15:26:00,49.5,49.3,29.98,West,270,2.0,4.0,99,0.01,,,0.11,meteohub,2013-01-01 20:26:00,
2013-01-01 15:31:00,49.5,49.3,29.98,South,180,2.0,3.0,99,0.01,,,0.11,meteohub,2013-01-01 20:31:00,
2013-01-01 15:36:00,49.5,49.3,29.98,East,90,2.0,2.0,99,0.01,,,0.11,meteohub,2013-01-01 20:36:00,
2013-01-01 15:41:00,49.5,49.3,29.98,NE,45,1.0,3.0,99,0.01,,,0.11,meteohub,2013-01-01 20:41:00,
2013-01-01 15:46:00,49.6,49.5,29.98,SW,225,3.0,3.0,99,0.01,,,0.11,meteohub,2013-01-01 20:46:00,
2013-01-01 15:51:00,49.5,49.3,29.97,North,0,2.0,3.0,99,0.00,,,0.11,meteohub,2013-01-01 20:51:00,
2013-01-01 15:56:00,49.6,49.5,29.97,SW,225,2.0,3.0,99,0.01,,,0.12,meteohub,2013-01-01 20:56:00,
2013-01-01 16:01:00,49.6,49.5,29.98,West,270,2.0,3.0,99,0.01,,,0.12,meteohub,2013-01-01 21:01:00,
2013-01-01 16:07:00,49.6,49.5,29.97,SW,225,2.0,2.0,99,0.01,,,0.12,meteohub,2013-01-01 21:07:00,
2013-01-01 16:12:00,49.6,49.5,29.97,West,270,3.0,3.0,99,0.01,,,0.12,meteohub,2013-01-01 21:12:00,
2013-01-01 16:17:00,49.6,49.5,29.97,SW,225,1.0,3.0,99,0.01,,,0.12,meteohub,2013-01-01 21:17:00,
2013-01-01 16:22:00,49.6,49.5,29.97,NE,45,2.0,4.0,99,0.01,,,0.12,meteohub,2013-01-01 21:22:00,
2013-01-01 16:27:00,49.6,49.5,29.97,North,0,3.0,4.0,99,0.01,,,0.12,meteohub,2013-01-01 21:27:00,
2013-01-01 16:32:00,49.8,49.5,29.97,SW,225,2.0,3.0,99,0.01,,,0.12,meteohub,2013-01-01 21:32:00,
2013-01-01 16:37:00,49.8,49.5,29.96,SW,225,2.0,3.0,99,0.01,,,0.12,meteohub,2013-01-01 21:37:00,
2013-01-01 16:42:00,50.0,49.6,29.96,West,270,2.0,3.0,99,0.01,,,0.12,meteohub,2013-01-01 21:42:00,
2013-01-01 16:47:00,50.0,49.6,29.97,SE,135,3.0,3.0,99,0.01,,,0.12,meteohub,2013-01-01 21:47:00,
2013-01-01 16:52:00,50.2,49.8,29.97,West,270,3.0,3.0,99,0.01,,,0.12,meteohub,2013-01-01 21:52:00,
2013-01-01 16:57:00,50.2,49.8,29.98,SW,225,2.0,3.0,99,0.00,,,0.12,meteohub,2013-01-01 21:57:00,
2013-01-01 17:02:00,50.2,49.8,29.98,East,90,1.0,3.0,99,0.00,,,0.12,meteohub,2013-01-01 22:02:00,
2013-01-01 17:07:00,50.2,49.8,29.98,NW,315,2.0,3.0,99,0.01,,,0.13,meteohub,2013-01-01 22:07:00,
2013-01-01 17:12:00,50.2,49.8,29.98,West,270,0.0,2.0,99,0.01,,,0.13,meteohub,2013-01-01 22:12:00,
2013-01-01 17:17:00,50.2,49.8,29.99,SW,225,0.0,3.0,99,0.01,,,0.13,meteohub,2013-01-01 22:17:00,
2013-01-01 17:22:00,50.0,49.6,29.99,SW,225,0.0,3.0,99,0.02,,,0.14,meteohub,2013-01-01 22:22:00,
2013-01-01 17:27:00,50.0,49.6,30.00,SW,225,2.0,2.0,99,0.02,,,0.14,meteohub,2013-01-01 22:27:00,
2013-01-01 17:32:00,50.0,49.6,30.00,SW,225,0.0,2.0,99,0.02,,,0.14,meteohub,2013-01-01 22:32:00,
2013-01-01 17:38:00,50.0,49.6,29.99,NE,45,0.0,2.0,99,0.02,,,0.14,meteohub,2013-01-01 22:38:00,
2013-01-01 17:43:00,50.0,49.6,29.99,NE,45,0.0,2.0,99,0.02,,,0.14,meteohub,2013-01-01 22:43:00,
2013-01-01 17:48:00,50.0,49.6,30.00,NE,45,0.0,0.0,99,0.02,,,0.14,meteohub,2013-01-01 22:48:00,
2013-01-01 17:53:00,49.8,49.5,30.00,NE,45,0.0,0.0,99,0.02,,,0.14,meteohub,2013-01-01 22:53:00,
2013-01-01 17:58:00,49.6,49.5,30.00,NE,45,0.0,0.0,99,0.02,,,0.14,meteohub,2013-01-01 22:58:00,
2013-01-01 18:03:00,49.6,49.5,30.00,NE,45,0.0,0.0,99,0.01,,,0.14,meteohub,2013-01-01 23:03:00,
2013-01-01 18:08:00,49.6,49.5,30.01,NE,45,0.0,0.0,99,0.01,,,0.14,meteohub,2013-01-01 23:08:00,
2013-01-01 18:13:00,49.6,49.5,30.00,NE,45,0.0,0.0,99,0.01,,,0.14,meteohub,2013-01-01 23:13:00,
2013-01-01 18:18:00,49.6,49.5,30.01,NE,45,0.0,0.0,99,0.02,,,0.15,meteohub,2013-01-01 23:18:00,
2013-01-01 18:23:00,49.6,49.5,30.01,NE,45,0.0,0.0,99,0.01,,,0.15,meteohub,2013-01-01 23:23:00,
2013-01-01 18:28:00,49.6,49.5,30.01,NE,45,0.0,0.0,99,0.01,,,0.15,meteohub,2013-01-01 23:28:00,
2013-01-01 18:33:00,49.6,49.5,30.01,NE,45,0.0,0.0,99,0.01,,,0.15,meteohub,2013-01-01 23:33:00,
2013-01-01 18:38:00,49.6,49.5,30.01,NE,45,0.0,0.0,99,0.02,,,0.17,meteohub,2013-01-01 23:38:00,
2013-01-01 18:44:00,49.8,49.5,30.00,NE,45,0.0,1.0,99,0.02,,,0.17,meteohub,2013-01-01 23:44:00,
2013-01-01 18:49:00,49.8,49.5,30.00,NE,45,0.0,1.0,99,0.02,,,0.17,meteohub,2013-01-01 23:49:00,
2013-01-01 18:54:00,49.8,49.5,29.99,NE,45,0.0,1.0,99,0.02,,,0.17,meteohub,2013-01-01 23:54:00,
2013-01-01 18:59:00,50.0,49.6,29.99,West,270,1.0,1.0,99,0.02,,,0.17,meteohub,2013-01-01 23:59:00,
2013-01-01 19:04:00,50.0,49.6,29.99,SW,225,1.0,1.0,99,0.02,,,0.17,meteohub,2013-01-02 00:04:00,
2013-01-01 19:09:00,50.2,49.8,30.00,SW,225,2.0,2.0,99,0.02,,,0.00,meteohub,2013-01-02 00:09:00,
2013-01-01 19:14:00,50.4,50.0,30.00,SW,225,0.0,2.0,99,0.01,,,0.00,meteohub,2013-01-02 00:14:00,
2013-01-01 19:19:00,50.4,50.0,30.00,SW,225,2.0,2.0,99,0.01,,,0.00,meteohub,2013-01-02 00:19:00,
2013-01-01 19:24:00,50.4,50.0,30.01,SW,225,2.0,2.0,99,0.01,,,0.00,meteohub,2013-01-02 00:24:00,
2013-01-01 19:29:00,50.5,50.2,30.00,North,0,0.0,2.0,99,0.01,,,0.00,meteohub,2013-01-02 00:29:00,
2013-01-01 19:34:00,50.5,50.2,30.01,North,0,2.0,2.0,99,0.01,,,0.00,meteohub,2013-01-02 00:34:00,
2013-01-01 19:39:00,50.5,50.2,30.00,SW,225,1.0,2.0,99,0.00,,,0.00,meteohub,2013-01-02 00:39:00,
2013-01-01 19:44:00,50.7,50.4,30.01,SW,225,2.0,2.0,99,0.00,,,0.00,meteohub,2013-01-02 00:44:00,
2013-01-01 19:50:00,50.9,50.5,30.01,East,90,0.0,2.0,99,0.00,,,0.00,meteohub,2013-01-02 00:50:00,
2013-01-01 19:55:00,50.9,50.5,30.01,NE,45,0.0,2.0,99,0.01,,,0.01,meteohub,2013-01-02 00:55:00,
2013-01-01 20:00:00,50.9,50.5,29.99,SW,225,1.0,2.0,99,0.01,,,0.01,meteohub,2013-01-02 01:00:00,
2013-01-01 20:05:00,50.9,50.5,29.99,SW,225,0.0,2.0,99,0.01,,,0.01,meteohub,2013-01-02 01:05:00,
2013-01-01 20:10:00,50.9,50.5,30.00,NE,45,0.0,1.0,99,0.01,,,0.01,meteohub,2013-01-02 01:10:00,
2013-01-01 20:15:00,51.1,50.7,29.99,West,270,2.0,2.0,99,0.01,,,0.01,meteohub,2013-01-02 01:15:00,
2013-01-01 20:20:00,51.1,50.7,30.01,NW,315,1.0,1.0,99,0.01,,,0.01,meteohub,2013-01-02 01:20:00,
2013-01-01 20:25:00,51.1,50.7,30.00,NW,315,0.0,2.0,99,0.01,,,0.01,meteohub,2013-01-02 01:25:00,
2013-01-01 20:30:00,51.1,50.7,30.00,NW,315,0.0,2.0,99,0.01,,,0.01,meteohub,2013-01-02 01:30:00,
2013-01-01 20:35:00,51.1,50.7,30.01,South,180,0.0,1.0,99,0.01,,,0.01,meteohub,2013-01-02 01:35:00,
2013-01-01 20:40:00,51.3,50.9,30.01,NW,315,0.0,2.0,99,0.01,,,0.01,meteohub,2013-01-02 01:40:00,
2013-01-01 20:45:00,51.1,50.7,30.01,NW,315,0.0,2.0,99,0.01,,,0.02,meteohub,2013-01-02 01:45:00,
2013-01-01 20:50:00,51.1,50.7,30.01,NW,315,0.0,2.0,99,0.01,,,0.02,meteohub,2013-01-02 01:50:00,
2013-01-01 20:55:00,51.3,50.9,30.01,NW,315,0.0,1.0,99,0.01,,,0.02,meteohub,2013-01-02 01:55:00,
2013-01-01 21:00:00,51.3,50.9,30.01,NW,315,1.0,1.0,99,0.01,,,0.02,meteohub,2013-01-02 02:00:00,
2013-01-01 21:06:00,51.3,50.9,30.01,NW,315,0.0,1.0,99,0.01,,,0.02,meteohub,2013-01-02 02:06:00,
2013-01-01 21:11:00,51.3,50.9,30.00,SW,225,0.0,1.0,99,0.01,,,0.02,meteohub,2013-01-02 02:11:00,
2013-01-01 21:16:00,51.3,50.9,30.00,SW,225,0.0,1.0,99,0.01,,,0.02,meteohub,2013-01-02 02:16:00,
2013-01-01 21:21:00,51.3,50.9,30.00,SW,225,1.0,1.0,99,0.01,,,0.02,meteohub,2013-01-02 02:21:00,
2013-01-01 21:26:00,51.3,50.9,30.00,SW,225,0.0,1.0,99,0.01,,,0.02,meteohub,2013-01-02 02:26:00,
2013-01-01 21:31:00,51.1,50.7,30.01,SW,225,0.0,1.0,99,0.01,,,0.02,meteohub,2013-01-02 02:31:00,
2013-01-01 21:36:00,51.1,50.7,30.01,SW,225,0.0,1.0,99,0.01,,,0.02,meteohub,2013-01-02 02:36:00,
2013-01-01 21:41:00,51.1,50.7,30.01,SW,225,0.0,1.0,99,0.01,,,0.02,meteohub,2013-01-02 02:41:00,
2013-01-01 21:46:00,51.1,50.7,30.01,SW,225,0.0,1.0,99,0.00,,,0.02,meteohub,2013-01-02 02:46:00,
2013-01-01 21:51:00,51.1,50.7,30.01,SW,225,1.0,1.0,99,0.00,,,0.02,meteohub,2013-01-02 02:51:00,
2013-01-01 21:57:00,51.1,50.7,30.00,SW,225,0.0,1.0,99,0.01,,,0.04,meteohub,2013-01-02 02:57:00,
2013-01-01 22:02:00,51.3,50.9,30.00,SW,225,0.0,1.0,99,0.01,,,0.04,meteohub,2013-01-02 03:02:00,
2013-01-01 22:07:00,51.1,50.7,30.00,SW,225,0.0,1.0,99,0.01,,,0.04,meteohub,2013-01-02 03:07:00,
2013-01-01 22:12:00,51.1,50.7,30.00,SW,225,0.0,0.0,99,0.01,,,0.04,meteohub,2013-01-02 03:12:00,
2013-01-01 22:17:00,51.1,50.7,30.01,SW,225,0.0,0.0,99,0.01,,,0.04,meteohub,2013-01-02 03:17:00,
2013-01-01 22:22:00,51.1,50.7,30.01,SW,225,0.0,0.0,99,0.01,,,0.04,meteohub,2013-01-02 03:22:00,
2013-01-01 22:27:00,51.1,50.7,29.99,NE,45,2.0,0.0,99,0.01,,,0.04,meteohub,2013-01-02 03:27:00,
2013-01-01 22:32:00,50.9,50.5,29.99,NE,45,1.0,2.0,99,0.01,,,0.04,meteohub,2013-01-02 03:32:00,
2013-01-01 22:37:00,50.9,50.5,30.01,SW,225,0.0,2.0,99,0.01,,,0.04,meteohub,2013-01-02 03:37:00,
2013-01-01 22:42:00,50.9,50.5,30.00,SW,225,0.0,2.0,99,0.02,,,0.05,meteohub,2013-01-02 03:42:00,
2013-01-01 22:47:00,50.9,50.5,29.99,NE,45,0.0,2.0,99,0.02,,,0.05,meteohub,2013-01-02 03:47:00,
2013-01-01 22:52:00,50.9,50.5,29.99,NE,45,0.0,0.0,99,0.01,,,0.05,meteohub,2013-01-02 03:52:00,
2013-01-01 22:57:00,50.9,50.5,29.98,NE,45,2.0,0.0,99,0.01,,,0.05,meteohub,2013-01-02 03:57:00,
2013-01-01 23:02:00,50.9,50.5,29.99,NE,45,0.0,2.0,99,0.01,,,0.05,meteohub,2013-01-02 04:02:00,
2013-01-01 23:07:00,50.9,50.5,29.99,NE,45,0.0,2.0,99,0.01,,,0.05,meteohub,2013-01-02 04:07:00,
2013-01-01 23:13:00,50.7,50.4,29.99,SW,225,0.0,2.0,99,0.01,,,0.05,meteohub,2013-01-02 04:13:00,
2013-01-01 23:18:00,50.7,50.4,29.99,SW,225,0.0,0.0,99,0.01,,,0.05,meteohub,2013-01-02 04:18:00,
2013-01-01 23:23:00,50.7,50.4,30.00,SW,225,0.0,0.0,99,0.01,,,0.05,meteohub,2013-01-02 04:23:00,
2013-01-01 23:28:00,50.7,50.4,30.00,SW,225,0.0,0.0,99,0.01,,,0.05,meteohub,2013-01-02 04:28:00,
2013-01-01 23:33:00,50.7,50.4,29.99,NE,45,0.0,0.0,99,0.01,,,0.05,meteohub,2013-01-02 04:33:00,
2013-01-01 23:38:00,50.7,50.4,29.99,NE,45,0.0,0.0,99,0.01,,,0.05,meteohub,2013-01-02 04:38:00,
2013-01-01 23:44:00,50.7,50.4,29.98,NE,45,0.0,0.0,99,0.01,,,0.06,meteohub,2013-01-02 04:44:00,
2013-01-01 23:49:00,50.7,50.4,29.99,West,270,0.0,0.0,99,0.01,,,0.06,meteohub,2013-01-02 04:49:00,
2013-01-01 23:54:00,35.1,27.0,-100.00,North,-999,-999.0,0.0,72,0.01,,,0.06,meteohub,2013-01-02 04:54:00,
2013-01-01 23:59:00,50.4,50.0,29.99,West,270,0.0,0.0,99,0.01,,,0.06,meteohub,2013-01-02 04:59:00,